Location: *
(29.1167°S, 130.0000°E)
Time: 15:56:12
(UTC+00:00)

Cosmos 1802 Rocket - Pass Details

Date: 21 July 2019
Orbit: 953 x 1013 km, 82.9° (Epoch: 20 August)

Event Time Altitude Azimuth Distance (km) Brightness Sun altitude
Rises 09:35:17 0° 187° (S) 3,747 7.0 -11.6°
Reaches altitude 10° 09:37:49 10° 188° (S) 2,798 6.3 -12.2°
Maximum altitude 09:44:16 80° 273° (W) 1,033 4.2 -13.5°
Drops below altitude 10° 09:50:42 10° 360° (N) 2,786 6.6 -14.9°
Sets 09:53:13 0° 1° (N) 3,730 7.2 -15.4°
